�N����,����,�~����,�C��,���x,�C��,����,���ϕ���,�ő�u�ԕ���,�ő厞����,���˗�,�I�_���x,�n�����x,�ő啗���N��,DTYPE
"23/08/01","00:10",0.0,25.6,87.4,1006.7,325.9,0.6,1.1,345.0,0.00,23.4,26.2,"00:00:40",1
"23/08/01","00:20",0.0,25.5,87.7,1006.7,332.2,1.0,1.3,354.7,0.00,23.3,26.2,"00:11:20",1
"23/08/01","00:30",0.0,25.4,88.2,1006.7,279.2,0.8,1.4,304.1,0.00,23.3,25.9,"00:20:02",1
"23/08/01","00:40",0.0,25.3,88.3,1006.7,300.4,1.1,2.6,336.1,0.00,23.3,26.0,"00:38:32",1
"23/08/01","00:50",0.0,25.3,88.3,1006.7,311.0,1.1,2.2,327.5,0.00,23.3,25.9,"00:43:44",1
"23/08/01","01:00",0.0,25.3,88.3,1006.9,304.2,1.1,1.7,357.5,0.00,23.3,25.8,"00:59:04",1
"23/08/01","01:10",0.0,25.4,88.3,1006.7,346.2,1.2,2.2,336.8,0.00,23.4,26.0,"01:00:40",1
"23/08/01","01:20",0.0,25.3,88.3,1006.2,287.7,0.7,1.2,341.4,0.00,23.3,25.7,"01:11:44",1
"23/08/01","01:30",0.0,25.1,88.5,1006.7,305.5,0.8,1.3,323.7,0.00,23.1,25.9,"01:24:16",1
"23/08/01","01:40",0.0,25.1,88.5,1006.9,304.6,0.7,1.9,340.3,0.00,23.1,25.9,"01:39:52",1
"23/08/01","01:50",0.0,25.2,88.6,1006.7,336.4,1.0,1.6,346.7,0.00,23.2,25.7,"01:43:28",1
"23/08/01","02:00",0.0,25.0,88.9,1006.4,321.5,0.5,1.0,4.9,0.00,23.1,25.7,"01:56:24",1
"23/08/01","02:10",0.0,24.9,89.1,1006.0,316.6,0.8,1.3,338.3,0.00,23.0,25.9,"02:03:52",1
"23/08/01","02:20",0.0,24.9,89.4,1006.0,274.9,0.7,1.4,344.2,0.00,23.1,25.7,"02:14:00",1
"23/08/01","02:30",0.0,24.9,89.4,1006.4,312.3,1.1,1.8,324.7,0.00,23.1,25.7,"02:23:52",1
"23/08/01","02:40",0.0,25.0,89.0,1007.1,281.8,1.2,2.1,326.0,0.00,23.1,26.0,"02:39:12",1
"23/08/01","02:50",0.0,25.3,88.5,1007.1,326.5,1.2,2.0,338.2,0.00,23.3,25.8,"02:43:28",1
"23/08/01","03:00",0.0,25.4,87.9,1007.1,330.0,1.2,1.9,317.4,0.00,23.3,25.8,"02:51:36",1
"23/08/01","03:10",0.0,25.5,87.3,1007.1,318.9,1.0,1.4,339.5,0.00,23.3,25.7,"03:09:04",1
"23/08/01","03:20",0.0,25.6,86.8,1006.9,303.9,0.6,1.4,312.2,0.00,23.3,25.4,"03:11:20",1
"23/08/01","03:30",0.0,25.6,86.4,1006.7,318.9,0.6,1.4,350.0,0.00,23.2,25.7,"03:22:16",1
"23/08/01","03:40",0.0,25.6,86.0,1006.7,294.0,0.3,1.0,332.7,0.00,23.1,25.6,"03:38:56",1
"23/08/01","03:50",0.0,25.5,85.9,1006.7,355.0,0.7,2.1,348.9,0.00,23.0,25.7,"03:42:48",1
"23/08/01","04:00",0.0,25.4,86.1,1006.4,311.9,1.0,1.6,242.6,0.00,22.9,25.4,"03:59:44",1
"23/08/01","04:10",0.0,25.2,86.4,1006.2,282.2,1.0,1.7,256.0,0.00,22.8,25.7,"04:03:04",1
"23/08/01","04:20",0.0,25.1,86.5,1006.7,315.4,0.7,1.6,326.0,0.00,22.7,25.5,"04:13:36",1
"23/08/01","04:30",0.0,24.9,86.7,1006.4,322.8,0.7,1.3,237.5,0.00,22.6,25.5,"04:20:32",1
"23/08/01","04:40",0.0,24.7,87.1,1006.4,325.3,0.6,1.4,352.4,0.00,22.4,25.5,"04:36:00",1
"23/08/01","04:50",0.0,24.6,87.5,1006.2,313.0,0.5,1.3,354.5,0.00,22.4,25.5,"04:46:56",1
"23/08/01","05:00",0.0,24.4,87.9,1006.2,320.7,0.3,1.1,315.3,0.00,22.3,25.4,"04:50:24",1
"23/08/01","05:10",0.0,24.4,88.4,1006.4,296.9,1.0,2.2,339.8,0.00,22.4,25.5,"05:06:48",1
"23/08/01","05:20",0.0,24.8,88.5,1006.7,342.8,1.2,2.2,351.0,0.00,22.8,25.5,"05:14:00",1
"23/08/01","05:30",0.0,25.3,88.3,1007.1,333.9,1.7,4.0,331.8,0.00,23.3,25.3,"05:24:16",1
"23/08/01","05:40",0.0,25.5,87.7,1007.1,321.0,1.8,3.3,306.4,0.00,23.3,25.2,"05:34:40",1
"23/08/01","05:50",0.0,25.6,87.2,1007.6,309.1,1.2,3.4,326.1,0.00,23.4,25.3,"05:49:12",1
"23/08/01","06:00",0.0,25.7,86.6,1007.8,332.8,1.6,2.7,326.4,0.00,23.3,25.2,"05:52:48",1
"23/08/01","06:10",0.0,25.7,86.2,1007.8,329.0,1.5,3.1,350.0,0.00,23.3,25.4,"06:00:24",1
"23/08/01","06:20",0.0,26.1,85.7,1008.1,330.7,1.2,2.4,335.2,0.04,23.6,25.4,"06:12:08",1
"23/08/01","06:30",0.0,26.8,84.5,1008.1,340.5,1.0,2.6,344.5,0.07,24.0,25.1,"06:28:32",1
"23/08/01","06:40",0.0,27.4,82.7,1007.8,343.1,1.0,2.4,343.2,0.08,24.2,25.2,"06:32:24",1
"23/08/01","06:50",0.0,27.7,80.4,1007.8,346.5,1.5,2.7,348.4,0.08,24.1,25.3,"06:47:36",1
"23/08/01","07:00",0.0,28.1,79.4,1007.8,342.6,1.1,2.6,336.2,0.09,24.2,25.2,"06:51:28",1
"23/08/01","07:10",0.0,28.9,76.7,1007.1,23.6,0.3,0.9,69.7,0.12,24.4,25.1,"07:06:24",1
"23/08/01","07:20",0.0,29.9,73.1,1006.9,164.0,0.5,1.2,122.3,0.14,24.6,25.3,"07:10:56",1
"23/08/01","07:30",0.0,30.6,70.7,1007.6,136.6,0.2,1.2,32.6,0.17,24.7,25.3,"07:29:52",1
"23/08/01","07:40",0.0,31.4,67.6,1008.1,59.9,0.6,1.9,8.7,0.19,24.7,25.4,"07:35:12",1
"23/08/01","07:50",0.0,31.9,65.2,1008.3,77.3,0.7,1.6,19.8,0.21,24.6,25.3,"07:48:16",1
"23/08/01","08:00",0.0,32.2,65.1,1008.6,88.9,0.6,1.6,99.7,0.24,24.8,25.4,"07:54:08",1
"23/08/01","08:10",0.0,32.4,62.7,1009.0,50.8,0.7,1.4,93.4,0.26,24.4,25.4,"08:01:44",1
"23/08/01","08:20",0.0,32.6,61.6,1008.8,171.6,0.5,1.7,14.2,0.28,24.3,25.5,"08:19:20",1
"23/08/01","08:30",0.0,32.5,62.6,1009.3,125.3,1.0,1.9,104.4,0.30,24.5,25.4,"08:24:32",1
"23/08/01","08:40",0.0,32.7,62.1,1009.3,144.4,0.8,1.8,227.3,0.32,24.5,25.5,"08:32:08",1
"23/08/01","08:50",0.0,33.0,61.4,1009.5,146.5,1.0,2.7,132.4,0.34,24.6,25.4,"08:46:16",1
"23/08/01","09:00",0.0,33.6,59.5,1009.5,136.5,0.7,2.7,116.4,0.36,24.7,25.6,"08:54:00",1
"23/08/01","09:10",0.0,33.4,58.8,1009.5,10.8,0.7,2.5,357.9,0.38,24.3,25.5,"09:03:12",1
"23/08/01","09:20",0.0,34.1,58.0,1010.0,134.2,0.8,2.1,356.1,0.41,24.7,25.6,"09:15:52",1
"23/08/01","09:30",0.0,33.9,57.3,1009.7,137.5,1.1,2.2,202.2,0.34,24.3,25.6,"09:20:32",1
"23/08/01","09:40",0.0,32.9,58.4,1009.3,48.1,0.8,2.0,341.3,0.15,23.7,25.7,"09:38:00",1
"23/08/01","09:50",0.0,32.9,59.1,1008.8,200.1,1.1,2.9,225.9,0.32,23.9,26.0,"09:48:48",1
"23/08/01","10:00",0.0,33.6,59.2,1008.8,162.2,1.7,3.7,182.1,0.40,24.6,25.9,"09:54:32",1
"23/08/01","10:10",0.0,33.2,59.2,1008.8,137.0,1.1,2.2,121.5,0.24,24.2,25.9,"10:05:44",1
"23/08/01","10:20",0.0,32.7,61.3,1008.8,184.4,1.0,2.5,210.7,0.14,24.3,25.9,"10:11:04",1
"23/08/01","10:30",0.0,34.0,60.0,1008.6,144.4,1.3,3.5,129.9,0.50,25.2,26.0,"10:27:04",1
"23/08/01","10:40",0.0,34.8,57.1,1009.0,198.9,1.6,4.2,223.6,0.55,25.1,25.9,"10:37:44",1
"23/08/01","10:50",0.0,34.8,55.5,1009.3,205.0,2.1,4.4,192.6,0.57,24.6,26.2,"10:42:56",1
"23/08/01","11:00",0.0,35.1,55.5,1009.3,200.4,1.1,3.1,239.3,0.51,24.9,26.3,"10:58:00",1
"23/08/01","11:10",0.0,35.4,53.8,1009.5,172.5,1.1,3.1,235.0,0.55,24.6,26.2,"11:01:44",1
"23/08/01","11:20",0.0,35.5,51.5,1009.3,174.9,1.6,3.2,201.9,0.55,24.0,26.5,"11:19:52",1
"23/08/01","11:30",0.0,34.6,53.3,1009.0,180.8,1.5,4.2,177.3,0.34,23.8,26.5,"11:28:32",1
"23/08/01","11:40",0.0,35.3,56.9,1008.6,197.7,1.6,3.9,235.6,0.48,25.5,26.8,"11:33:20",1
"23/08/01","11:50",0.0,35.4,51.5,1008.8,180.5,1.6,3.9,191.8,0.58,23.9,26.6,"11:48:40",1
"23/08/01","12:00",0.0,36.5,49.8,1008.8,165.2,1.2,2.8,225.3,0.58,24.4,26.8,"11:50:40",1
"23/08/01","12:10",0.0,36.6,47.6,1008.8,164.0,1.6,3.9,235.0,0.59,23.7,27.0,"12:06:48",1
"23/08/01","12:20",0.0,36.9,48.4,1008.6,131.7,1.3,3.9,127.1,0.58,24.3,27.1,"12:16:40",1
"23/08/01","12:30",0.0,36.5,47.5,1008.8,157.9,1.5,3.9,235.7,0.45,23.6,27.4,"12:28:16",1
"23/08/01","12:40",0.0,36.4,49.3,1008.6,186.0,2.3,4.3,221.2,0.53,24.1,27.5,"12:34:24",1
"23/08/01","12:50",0.0,37.1,46.6,1008.1,165.2,1.3,3.1,98.5,0.55,23.8,27.3,"12:40:08",1
"23/08/01","13:00",0.0,36.9,45.8,1008.3,220.8,2.1,4.0,197.8,0.54,23.3,27.6,"12:54:32",1
"23/08/01","13:10",0.0,36.8,44.9,1008.3,199.4,1.8,4.4,224.9,0.54,22.9,27.7,"13:04:24",1
"23/08/01","13:20",0.0,37.7,44.5,1007.8,331.1,0.8,2.6,208.3,0.54,23.6,27.7,"13:13:04",1
"23/08/01","13:30",0.0,37.6,43.0,1008.3,216.6,1.6,4.0,188.9,0.52,22.9,28.0,"13:23:52",1
"23/08/01","13:40",0.0,37.1,41.1,1007.8,236.2,1.8,4.2,231.0,0.51,21.7,27.8,"13:31:20",1
"23/08/01","13:50",0.0,37.7,39.2,1007.8,212.9,1.1,2.7,220.4,0.50,21.5,28.2,"13:42:32",1
"23/08/01","14:00",0.0,38.2,39.9,1008.1,211.3,1.0,2.2,238.8,0.50,22.2,28.1,"13:54:56",1
"23/08/01","14:10",0.0,37.8,38.1,1008.1,164.9,1.3,3.3,223.0,0.38,21.1,28.1,"14:04:32",1
"23/08/01","14:20",0.0,37.9,41.8,1007.6,124.6,0.8,4.0,118.6,0.37,22.7,28.2,"14:14:56",1
"23/08/01","14:30",0.0,38.3,39.7,1007.8,212.9,1.3,3.3,216.8,0.47,22.2,28.1,"14:25:20",1
"23/08/01","14:40",0.0,38.2,39.9,1007.4,227.9,1.6,3.4,228.6,0.45,22.2,28.3,"14:33:36",1
"23/08/01","14:50",0.0,38.3,39.0,1007.1,227.9,1.3,4.8,225.3,0.44,21.9,28.4,"14:46:40",1
"23/08/01","15:00",0.0,37.2,40.9,1006.4,298.8,1.2,2.8,338.1,0.21,21.7,28.4,"14:50:40",1
"23/08/01","15:10",0.0,37.4,41.2,1006.2,290.8,1.1,3.1,354.5,0.27,22.0,28.4,"15:04:48",1
"23/08/01","15:20",0.0,36.6,42.2,1005.7,203.7,1.2,2.4,233.1,0.21,21.7,28.4,"15:16:16",1
"23/08/01","15:30",0.0,37.0,42.7,1005.5,328.1,0.8,2.0,353.2,0.13,22.3,28.4,"15:29:12",1
"23/08/01","15:40",0.0,37.0,42.5,1005.0,327.2,1.6,4.5,345.5,0.29,22.2,28.5,"15:32:08",1
"23/08/01","15:50",0.0,37.7,41.8,1005.2,321.3,1.3,2.7,346.6,0.30,22.5,28.5,"15:46:08",1
"23/08/01","16:00",0.0,37.8,40.9,1005.5,271.1,1.1,2.8,328.1,0.23,22.3,28.2,"15:54:48",1
"23/08/01","16:10",0.0,37.3,42.9,1005.2,343.2,1.3,2.7,343.1,0.20,22.6,28.4,"16:06:40",1
"23/08/01","16:20",0.0,36.8,42.7,1005.0,325.9,1.3,3.2,333.4,0.14,22.1,28.4,"16:14:24",1
"23/08/01","16:30",0.0,36.6,44.6,1004.8,276.7,1.6,3.7,223.6,0.15,22.6,28.4,"16:29:20",1
"23/08/01","16:40",0.0,36.8,44.4,1004.8,297.6,1.1,2.9,332.5,0.15,22.7,28.3,"16:33:20",1
"23/08/01","16:50",0.0,37.0,45.4,1004.8,297.0,1.5,3.6,238.0,0.18,23.3,28.3,"16:48:48",1
"23/08/01","17:00",0.0,36.6,45.8,1005.2,231.1,2.1,4.3,221.9,0.15,23.1,28.3,"16:52:00",1
"23/08/01","17:10",0.0,36.2,48.0,1005.2,237.9,2.3,6.3,232.9,0.12,23.5,28.4,"17:06:08",1
"23/08/01","17:20",0.0,35.4,50.1,1004.8,227.3,2.5,6.7,232.7,0.08,23.5,28.2,"17:16:32",1
"23/08/01","17:30",0.0,34.8,51.4,1004.8,217.2,3.0,5.7,206.9,0.06,23.3,28.2,"17:27:28",1
"23/08/01","17:40",0.0,34.2,53.2,1005.5,197.7,2.5,4.5,210.6,0.02,23.4,28.2,"17:33:20",1
"23/08/01","17:50",0.0,33.1,55.9,1005.5,184.1,3.4,6.8,205.1,0.03,23.2,28.1,"17:43:44",1
"23/08/01","18:00",0.0,32.6,58.0,1005.5,174.1,3.2,7.0,215.7,0.02,23.3,28.2,"17:54:40",1
"23/08/01","18:10",0.0,32.1,57.4,1005.5,170.7,3.1,5.6,192.6,0.02,22.7,28.1,"18:09:36",1
"23/08/01","18:20",0.0,31.7,57.4,1005.5,179.3,2.8,5.5,222.8,0.02,22.3,27.9,"18:11:36",1
"23/08/01","18:30",0.0,31.3,57.7,1005.0,181.5,2.1,4.9,208.9,0.01,22.0,27.8,"18:24:00",1
"23/08/01","18:40",0.0,31.1,58.6,1005.0,183.7,1.6,4.2,148.2,0.00,22.1,27.9,"18:32:24",1
"23/08/01","18:50",0.0,30.7,60.2,1004.3,199.5,1.1,2.7,219.4,0.00,22.1,27.7,"18:44:00",1
"23/08/01","19:00",0.0,30.4,61.1,1004.1,176.2,0.8,2.6,205.3,0.00,22.1,27.7,"18:50:16",1
"23/08/01","19:10",0.0,30.4,62.2,1004.1,215.1,1.2,2.4,217.0,0.00,22.4,27.4,"19:03:12",1
"23/08/01","19:20",0.0,30.0,62.9,1004.3,156.6,0.5,1.2,191.1,0.00,22.2,27.6,"19:11:44",1
"23/08/01","19:30",0.0,29.5,65.7,1004.1,316.2,0.7,1.6,347.0,0.00,22.4,27.7,"19:21:20",1
"23/08/01","19:40",0.0,29.6,66.6,1004.5,264.1,1.0,3.1,228.7,0.00,22.8,27.5,"19:33:28",1
"23/08/01","19:50",0.0,29.3,65.5,1005.0,226.2,1.2,2.9,234.5,0.00,22.2,27.3,"19:43:12",1
"23/08/01","20:00",0.0,29.7,64.1,1005.5,201.5,0.8,2.4,230.3,0.00,22.2,27.3,"19:52:08",1
"23/08/01","20:10",0.0,29.6,63.6,1005.2,195.1,1.1,3.1,182.2,0.00,22.0,27.2,"20:09:28",1
"23/08/01","20:20",0.0,29.5,62.6,1005.7,190.5,2.2,4.2,187.0,0.00,21.7,27.2,"20:18:16",1
"23/08/01","20:30",0.0,29.2,63.0,1006.4,166.8,1.3,2.9,139.2,0.00,21.5,27.2,"20:22:08",1
"23/08/01","20:40",0.0,29.1,63.8,1006.7,197.4,1.5,2.7,205.3,0.00,21.6,27.3,"20:31:36",1
"23/08/01","20:50",0.0,28.8,64.2,1006.4,260.4,0.7,1.8,238.3,0.00,21.4,27.2,"20:42:24",1
"23/08/01","21:00",0.0,28.8,67.0,1006.7,340.6,0.8,1.9,329.1,0.00,22.1,27.3,"20:56:16",1
"23/08/01","21:10",0.0,27.9,69.0,1006.4,339.9,0.8,1.3,336.3,0.00,21.7,27.1,"21:00:08",1
"23/08/01","21:20",0.0,27.4,71.6,1006.4,337.5,1.0,1.9,340.0,0.00,21.9,26.9,"21:16:32",1
"23/08/01","21:30",0.0,27.4,72.8,1006.7,344.5,1.0,1.8,310.9,0.00,22.1,26.8,"21:21:52",1
"23/08/01","21:40",0.0,27.1,73.2,1006.4,293.2,0.5,1.8,328.2,0.00,21.9,27.0,"21:31:52",1
"23/08/01","21:50",0.0,26.7,73.9,1006.4,117.0,0.2,0.5,113.9,0.00,21.7,26.8,"21:41:20",1
"23/08/01","22:00",0.0,26.9,74.9,1006.4,326.0,1.0,1.8,330.4,0.00,22.1,26.7,"21:54:00",1
"23/08/01","22:10",0.0,27.0,75.5,1006.4,340.4,0.8,1.2,351.1,0.00,22.3,26.7,"22:01:28",1
"23/08/01","22:20",0.0,26.5,76.4,1006.9,318.2,0.7,1.1,315.5,0.00,22.1,26.7,"22:10:08",1
"23/08/01","22:30",0.0,26.7,77.3,1006.7,339.2,0.8,2.2,340.8,0.00,22.4,26.6,"22:23:12",1
"23/08/01","22:40",0.0,26.3,78.0,1006.9,302.1,0.7,1.2,339.6,0.00,22.2,26.7,"22:35:12",1
"23/08/01","22:50",0.0,26.3,78.2,1006.7,293.7,0.7,1.3,330.6,0.00,22.2,26.7,"22:48:00",1
"23/08/01","23:00",0.0,26.2,78.3,1007.1,329.8,0.8,1.6,322.3,0.00,22.2,26.6,"22:51:28",1
"23/08/01","23:10",0.0,26.0,78.9,1007.1,344.6,0.7,1.2,359.7,0.00,22.1,26.5,"23:08:24",1
"23/08/01","23:20",0.0,25.8,80.1,1006.7,333.2,1.0,1.3,338.3,0.00,22.1,26.3,"23:13:20",1
"23/08/01","23:30",0.0,25.6,80.8,1006.9,333.7,0.7,1.1,347.7,0.00,22.1,26.5,"23:22:00",1
"23/08/01","23:40",0.0,25.3,81.2,1006.7,299.6,0.5,0.8,338.2,0.00,21.9,26.3,"23:39:12",1
"23/08/01","23:50",0.0,25.3,81.9,1006.4,327.8,0.7,0.9,327.9,0.00,22.0,26.5,"23:41:28",1
"23/08/01","24:00",0.0,25.3,82.4,1006.7,301.9,0.7,1.2,337.3,0.00,22.1,26.2,"23:51:52",1
